Showing default

YAM-6, 59126

Orbit data source: Space-Track

YAM-6, 59126 is a payload satellite owned by Loft Orbital (US) in SSO that was launched on Mon, 04 Mar 2024 UTC via an FALCON 9 launch vehicle from the Air Force Western Test Range (AFWTR). Payload-class satellites include a variety of spacecraft equipped with specific instruments for various scientific and technological missions. These include communications satellites like Starlink; space stations such as the ISS; scientific satellites like the Hubble; Earth observation satellites from companies like Planet Labs, Umbra, and HawkEye 360; GPS; miniature CubeSats for education and research; and military/defense satellites.

Loading next visibility...
Identifier
59126, 2024-043AE
Orbit
SSO
Country
Flag of USUS
Related business
Manufacturer
LeoStella
Mission
Operational Defense Technology
Bus & Motor
YAM, Unknown motor
Mass
87 kg wet, 87 kg dry
Launch date (UTC)
2024-03-04 (1 year ago)
Launch vehicle
FALCON 9
Launch site
Air Force Western Test Range (AFWTR)
Object type
Payload
Rocket body
Debris
Shape & HBR
Box + 4 Pan, 0.1 m
Radar Cross Section
0.080 m², Medium (>0.1 m² and < 1m²)

Expand to show TLE details & history
Last TLE update: 13 hours ago

TLE from 13 hours ago
0 YAM-6
1 59126U 24043AE  25241.91479776  .00012129  00000-0  41804-3 0  9995
2 59126  97.5207  12.0865 0009704 179.3398 180.7857 15.30118620 82662
Epoch: 2025-08-29T21:57Z
TLE epoch observation values (Epoch: 2025-08-29T21:57:18.526Z)
Latitude
-0.00001°
Longitude
64.4027°
Altitude
485.21 km
Speed
7.619 km/s
True Right ascension
00h 48m 20s
True Declination
0° 00' 00"
Sunlit
Object was in full shadow at epoch
Visualization orbit readout
Latitude
Unknown
Longitude
Unknown
Altitude
Unknown
Speed
Unknown
Apparent Right ascension
Unknown
Apparent Declination
Unknown
Sunlit
N/A
Visualization observer readout
Local Sidereal Time
02:57:11
Azimuth
Unknown
Elevation
Unknown
Doppler factor
Unknown
Orbital elements
Apogee altitude
479.063 km
Perigee altitude
465.768 km
Semi-major axis
6,850.552 km
Eccentricity
0.00097
Inclination
97.5207°
RAAN
12.0865°
Arg. of periapsis
179.3398°
True anomaly
180.78418°
Mean anomaly
180.7857°
Eccentric anomaly
180.78494°
Mean motion
3.82785 °/min
Orbital period
94.05 mins
BSTAR
0.00041804
Loading maneuver chart data...
Computing Atmospheric mass density...
Loading historical data...
Loading historical data...
Loading historical data...
Loading historical data...
Loading historical data...
Loading historical data...
Loading historical data...

Documentation

Showing up to 5 results
|